sat.trackr.live / text

‹ back to catalog

STARLINK-1350

NORAD 45535 · 2020-025E

PAYLOAD ACTIVE UNKNOWN

§ Identity

Operator
Country
US
Launch date
2020-04-22
Launch site
AFETR
Launch vehicle
Mass (kg)
RCS (m²)

Purposes: comms

External: N2YO · Heavens-Above · Gunter

§ Orbital elements

Epoch: 2026-09-19T13:30:24.419232Z

Period
93.29 min
Inclination
53.0686°
Eccentricity
0.0002461
Mean motion
15.43542368 rev/d
Perigee alt
434.0 km
Apogee alt
437.3 km
Semi-major
6,813.8 km
B*
1.0262e-3
RAAN
198.5014°
Arg perigee
83.9020°
Mean anomaly
276.2266°
Rev number
35,601

§ Raw data

STARLINK-13501 45535U 20025E   26262.56278263  .00046651  00000+0  10262-2 0  99922 45535  53.0686 198.5014 0002461  83.9020 276.2266 15.43542368356012

JSON: /api/v1/satellites/45535 · /tle

For live sub-satellite position, see the globe view (requires WebGL).

§ Visibility from observer

Set your observer location to see the next 7 days of passes ≥ 10°. The values pass through the URL so the page stays shareable.

No JS? Fill the form by hand. The geolocation button needs JavaScript.